DW6513 Weather Reports


time (UTC)temp
F
wind
direction
speed
knots
gust
knots
rain 1hr
in
rain 24hr
in
rain mn
in
humidity
%
barometer
mb
20260831175306 94 218 2.6 10.4 0.00 0.00 0.00 44 1016.9
20260831174304 93 3 1.7 2.6 0.00 0.00 0.00 45 1017.0
20260831173803 92 78 2.6 5.2 0.00 0.00 0.00 46 1017.0
20260831173304 92 128 4.3 8.7 0.00 0.00 0.00 46 1017.0
20260831172803 91 78 4.3 8.7 0.00 0.00 0.00 46 1017.4
20260831172306 91 162 2.6 7.0 0.00 0.00 0.00 46 1017.4
20260831171804 91 122 1.7 5.2 0.00 0.00 0.00 47 1017.4
20260831171303 91 214 1.7 5.2 0.00 0.00 0.00 47 1017.4
20260831170804 90 212 1.7 5.2 0.00 0.00 0.00 47 1017.7
20260831170304 90 134 2.6 7.0 0.00 0.00 0.00 47 1017.7
20260831165804 89 145 2.6 11.3 0.00 0.00 0.00 48 1017.7
20260831165305 89 141 2.6 11.3 0.00 0.00 0.00 48 1017.7
20260831164303 89 241 1.7 4.3 0.00 0.00 0.00 49 1017.8
20260831163804 89 235 2.6 2.6 0.00 0.00 0.00 49 1017.8
20260831163304 89 117 2.6 4.3 0.00 0.00 0.00 49 1017.8
20260831162803 88 168 1.7 4.3 0.00 0.00 0.00 50 1017.6
20260831162306 88 280 2.6 6.1 0.00 0.00 0.00 49 1017.6
20260831161804 87 145 2.6 6.1 0.00 0.00 0.00 50 1017.6
20260831161304 87 302 2.6 5.2 0.00 0.00 0.00 50 1017.6
20260831160304 87 80 2.6 4.3 0.00 0.00 0.00 50 1017.6
20260831155805 86 100 1.7 4.3 0.00 0.00 0.00 52 1017.6
20260831155306 86 131 1.7 4.3 0.00 0.00 0.00 51 1017.6
20260831154804 86 78 1.7 2.6 0.00 0.00 0.00 53 1017.7
20260831154303 85 233 2.6 4.3 0.00 0.00 0.00 53 1017.7
20260831153804 85 145 2.6 4.3 0.00 0.00 0.00 53 1017.7
20260831152804 85 212 2.6 1.7 0.00 0.00 0.00 54 1017.4
20260831152306 84 66 2.6 7.8 0.00 0.00 0.00 54 1017.4
20260831151803 84 168 2.6 7.0 0.00 0.00 0.00 54 1017.4
20260831151303 84 145 2.6 7.0 0.00 0.00 0.00 54 1017.4
20260831150804 83 122 1.7 7.8 0.00 0.00 0.00 55 1017.5
20260831150304 83 90 2.6 7.8 0.00 0.00 0.00 55 1017.5
20260831145804 83 122 3.5 6.1 0.00 0.00 0.00 56 1017.5
20260831145306 82 100 2.6 6.1 0.00 0.00 0.00 57 1017.5
20260831144804 82 100 1.7 4.3 0.00 0.00 0.00 57 1017.7
20260831144304 82 21 0.9 4.3 0.00 0.00 0.00 58 1017.7
20260831143803 81 129 0.9 2.6 0.00 0.00 0.00 58 1017.7
20260831143304 81 280 1.7 4.3 0.00 0.00 0.00 58 1017.7
20260831142803 80 132 1.7 4.3 0.00 0.00 0.00 59 1017.8
20260831141804 80 41 1.7 5.2 0.00 0.00 0.00 59 1017.8
20260831141303 80 145 0.9 4.3 0.00 0.00 0.00 60 1017.8
20260831140304 79 163 0.9 6.1 0.00 0.00 0.00 60 1017.5
20260831135804 79 100 0.9 5.2 0.00 0.00 0.00 60 1017.5
20260831135306 78 248 0.9 4.3 0.00 0.00 0.00 61 1017.5
20260831134804 78 122 0.9 4.3 0.00 0.00 0.00 61 1017.5
20260831134304 78 235 0.9 2.6 0.00 0.00 0.00 62 1017.5
20260831133804 77 122 0.9 0.0 0.00 0.00 0.00 63 1017.5
20260831132803 76 280 0.0 2.6 0.00 0.00 0.00 67 1017.2
20260831132306 76 280 0.0 0.0 0.00 0.00 0.00 67 1017.2
20260831131804 76 145 0.9 1.7 0.00 0.00 0.00 67 1017.2
20260831130804 75 122 0.0 0.0 0.00 0.00 0.00 68 1016.9
20260831130304 75 78 0.0 0.0 0.00 0.00 0.00 68 1016.9
20260831125803 74 127 0.0 0.0 0.00 0.00 0.00 68 1016.9
20260831124804 74 275 0.0 0.0 0.00 0.00 0.00 69 1016.9
20260831124303 73 207 0.0 0.0 0.00 0.00 0.00 69 1016.9
20260831123803 73 135 0.0 0.0 0.00 0.00 0.00 69 1016.9
20260831123303 73 206 0.0 0.0 0.00 0.00 0.00 69 1016.9
20260831122804 73 78 0.0 0.0 0.00 0.00 0.00 70 1016.7
20260831122306 72 233 0.0 0.0 0.00 0.00 0.00 70 1016.7
20260831121304 72 145 0.0 0.0 0.00 0.00 0.00 70 1016.7
20260831120803 72 128 0.0 0.0 0.00 0.00 0.00 70 1016.7
20260831120303 72 49 0.0 0.0 0.00 0.00 0.00 70 1016.7
20260831115804 71 178 0.0 0.0 0.00 0.00 0.00 70 1016.7
20260831115306 71 98 0.0 0.0 0.00 0.00 0.00 70 1016.7
20260831114804 71 299 0.0 0.0 0.00 0.00 0.00 70 1016.6
20260831114303 72 252 0.9 0.0 0.00 0.00 0.00 70 1016.6
20260831113804 72 122 0.9 2.6 0.00 0.00 0.00 70 1016.6
20260831113304 72 101 0.0 2.6 0.00 0.00 0.00 70 1016.6
20260831112804 72 145 0.0 0.0 0.00 0.00 0.00 69 1016.6
20260831112306 72 107 0.0 0.0 0.00 0.00 0.00 69 1016.6
20260831111803 72 112 0.0 0.0 0.00 0.00 0.00 69 1016.6
20260831111304 72 104 0.0 0.0 0.00 0.00 0.00 69 1016.6
20260831110804 73 2 0.0 0.0 0.00 0.00 0.00 69 1016.6
20260831105804 73 140 0.0 0.0 0.00 0.00 0.00 69 1016.6
20260831105306 72 171 0.0 0.0 0.00 0.00 0.00 69 1016.6
20260831104803 72 177 0.0 0.0 0.00 0.00 0.00 69 1016.3
20260831103804 72 258 0.0 0.0 0.00 0.00 0.00 69 1016.3
20260831103303 69 163 0.0 1.7 0.00 0.00 0.00 69 1016.3
20260831102804 70 102 0.0 1.7 0.00 0.00 0.00 69 1016.7
20260831102305 70 100 0.0 0.0 0.00 0.00 0.00 68 1016.8
20260831101804 70 153 0.0 0.0 0.00 0.00 0.00 69 1016.8
20260831100804 70 147 0.0 0.0 0.00 0.00 0.00 68 1017.0
20260831095804 70 175 0.0 0.0 0.00 0.00 0.00 68 1017.0
20260831094804 70 141 0.0 0.0 0.00 0.00 0.00 68 1016.8
20260831094303 70 144 0.0 0.0 0.00 0.00 0.00 68 1016.8
20260831093804 70 92 0.0 0.0 0.00 0.00 0.00 67 1016.8
20260831092306 70 280 0.0 0.0 0.00 0.00 0.00 66 1016.7
20260831091804 70 190 0.0 0.0 0.00 0.00 0.00 66 1016.7
20260831091304 71 121 0.0 0.0 0.00 0.00 0.00 66 1016.7
20260831085804 71 78 0.0 0.0 0.00 0.00 0.00 65 1016.4
20260831085306 71 122 0.0 0.0 0.00 0.00 0.00 66 1016.4
20260831084804 71 170 0.0 0.0 0.00 0.00 0.00 65 1016.3
20260831084304 71 122 0.0 0.0 0.00 0.00 0.00 66 1016.3
20260831083804 71 197 0.0 0.0 0.00 0.00 0.00 65 1016.3
20260831083304 71 142 0.0 0.0 0.00 0.00 0.00 65 1016.3
20260831082804 71 172 0.0 0.0 0.00 0.00 0.00 65 1016.4
20260831082306 71 144 0.0 0.0 0.00 0.00 0.00 66 1016.4
20260831080804 71 287 0.0 0.0 0.00 0.00 0.00 66 1016.2
20260831080304 71 301 0.0 0.0 0.00 0.00 0.00 67 1016.2
20260831075803 71 85 0.0 0.0 0.00 0.00 0.00 66 1016.2
20260831075306 71 302 0.0 0.0 0.00 0.00 0.00 67 1016.2
20260831074804 71 31 0.0 0.0 0.00 0.00 0.00 67 1016.3
20260831074304 71 146 0.0 0.0 0.00 0.00 0.00 67 1016.3
20260831073804 71 153 0.0 0.0 0.00 0.00 0.00 67 1016.3
20260831072804 72 220 0.0 0.0 0.00 0.00 0.00 67 1016.3
20260831072306 72 147 0.0 0.0 0.00 0.00 0.00 67 1016.3
20260831071804 71 117 0.0 0.0 0.00 0.00 0.00 68 1016.3
20260831071305 71 144 0.0 0.0 0.00 0.00 0.00 68 1016.3
20260831070804 71 226 0.0 0.0 0.00 0.00 0.00 68 1016.6
20260831070304 71 168 0.0 0.0 0.00 0.00 0.00 68 1016.6
20260831065804 71 147 0.0 0.0 0.00 0.00 0.00 68 1016.6
20260831065306 71 144 0.0 0.0 0.00 0.00 0.00 68 1016.6
20260831064304 71 145 0.0 0.0 0.00 0.00 0.00 68 1016.9
20260831063804 71 153 0.0 0.0 0.00 0.00 0.00 69 1016.9
20260831063303 71 121 0.0 0.0 0.00 0.00 0.00 69 1016.9
20260831062305 71 78 0.0 0.0 0.00 0.00 0.00 70 1016.8
20260831061303 71 100 0.0 0.0 0.00 0.00 0.00 58 1016.8
20260831060804 77 145 0.0 0.0 0.00 0.00 0.00 56 1015.5
20260831060303 77 145 0.0 0.0 0.00 0.00 0.00 56 1015.5
20260831055804 77 145 0.0 0.0 0.00 0.00 0.00 56 1015.5
20260831055306 77 145 0.0 0.0 0.00 0.00 0.00 56 1015.5
20260831054804 77 145 0.0 0.0 0.00 0.00 0.00 56 1015.5
20260831053806 77 145 0.0 0.0 0.00 0.00 0.00 56 1015.5
20260831052803 77 145 0.0 0.0 0.00 0.00 0.00 56 1015.5
20260831052306 77 145 0.0 0.0 0.00 0.00 0.00 56 1015.5
20260831050822 77 145 0.0 0.0 0.00 0.00 0.00 56 1015.5
20260831050303 77 145 0.0 0.0 0.00 0.00 0.00 56 1015.5
20260831045306 77 145 0.0 0.0 0.00 0.00 0.00 56 1015.5
20260831044804 77 145 0.0 0.0 0.00 0.00 0.00 56 1015.5
20260831044304 77 145 0.0 0.0 0.00 0.00 0.00 56 1015.5
20260831043303 77 145 0.0 0.0 0.00 0.00 0.00 56 1015.5
20260831042803 77 145 0.0 0.0 0.00 0.00 0.00 56 1015.5
20260831042306 77 145 0.0 0.0 0.00 0.00 0.00 56 1015.5
20260831041803 77 145 0.0 0.0 0.00 0.00 0.00 56 1015.5
20260831040803 77 145 0.0 0.0 0.00 0.00 0.00 56 1015.5
20260831040302 77 145 0.0 0.0 0.00 0.00 0.00 56 1015.5
20260831035803 77 145 0.0 0.0 0.00 0.00 0.00 56 1015.5
20260831035306 77 145 0.0 0.0 0.00 0.00 0.00 56 1015.5
20260831034803 77 145 0.0 0.0 0.00 0.00 0.00 56 1015.5
20260831034303 77 145 0.0 0.0 0.00 0.00 0.00 56 1015.5
20260831033803 77 145 0.0 0.0 0.00 0.00 0.00 56 1015.5
20260831033303 77 145 0.0 0.0 0.00 0.00 0.00 56 1015.5
20260831032803 77 145 0.0 0.0 0.00 0.00 0.00 56 1015.5
20260831032306 77 145 0.0 0.0 0.00 0.00 0.00 56 1015.5
20260831031803 77 191 0.0 0.0 0.00 0.00 0.00 56 1015.5
20260831031302 77 122 0.0 0.0 0.00 0.00 0.00 55 1015.5
20260831030803 77 220 0.0 0.0 0.00 0.00 0.00 55 1015.7
20260831030303 77 145 0.0 0.0 0.00 0.00 0.00 55 1015.7
20260831025803 78 138 0.0 0.0 0.00 0.00 0.00 55 1015.7
20260831025306 78 302 0.0 0.0 0.00 0.00 0.00 55 1015.7
20260831024804 78 122 0.0 0.0 0.00 0.00 0.00 54 1015.8
20260831024303 78 145 0.0 2.6 0.00 0.00 0.00 54 1015.8
20260831023803 78 100 0.0 2.6 0.00 0.00 0.00 54 1015.8
20260831022803 78 108 0.0 0.0 0.00 0.00 0.00 53 1015.8
20260831022306 79 168 0.0 0.0 0.00 0.00 0.00 53 1015.8
20260831021803 79 258 0.0 0.0 0.00 0.00 0.00 53 1015.8
20260831021303 79 168 0.0 0.0 0.00 0.00 0.00 53 1015.8
20260831020803 79 183 0.0 1.7 0.00 0.00 0.00 53 1015.4
20260831020303 79 145 0.0 1.7 0.00 0.00 0.00 52 1015.4
20260831015803 79 158 0.0 0.0 0.00 0.00 0.00 52 1015.4
20260831015305 80 258 0.9 2.6 0.00 0.00 0.00 51 1015.4
20260831014803 80 227 0.9 4.3 0.00 0.00 0.00 51 1015.2
20260831014303 80 302 0.0 1.7 0.00 0.00 0.00 51 1015.2
20260831013804 80 78 0.0 1.7 0.00 0.00 0.00 50 1015.2
20260831013303 81 235 0.9 1.7 0.00 0.00 0.00 50 1015.2
20260831012804 81 119 0.9 2.6 0.00 0.00 0.00 50 1015.2
20260831011803 81 100 0.0 4.3 0.00 0.00 0.00 50 1015.2
20260831011303 81 168 0.0 4.3 0.00 0.00 0.00 49 1015.2
20260831010803 82 207 0.0 0.0 0.00 0.00 0.00 48 1014.9
20260831010303 82 258 0.0 2.6 0.00 0.00 0.00 48 1014.9
20260831005803 82 187 0.0 2.6 0.00 0.00 0.00 48 1014.9
20260831005306 82 145 0.9 0.0 0.00 0.00 0.00 47 1014.9
20260831004803 83 246 0.9 0.0 0.00 0.00 0.00 47 1014.7
20260831004303 83 55 0.9 5.2 0.00 0.00 0.00 47 1014.7
20260831003304 84 280 0.9 2.6 0.00 0.00 0.00 45 1014.7
20260831002306 84 212 0.9 2.6 0.00 0.00 0.00 44 1014.9
20260831001804 85 213 0.9 4.3 0.00 0.00 0.00 44 1014.9
20260831001304 85 258 0.9 1.7 0.00 0.00 0.00 43 1014.9
20260831000804 86 294 0.9 5.2 0.00 0.00 0.00 43 1014.9
20260830235803 86 176 0.9 7.0 0.00 0.00 0.00 42 1014.9
20260830234803 87 294 1.7 4.3 0.00 0.00 0.00 39 1014.9
20260830233803 88 119 1.7 5.2 0.00 0.00 0.00 35 1014.9
20260830233303 88 55 0.9 5.2 0.00 0.00 0.00 34 1015.5
20260830232803 89 353 1.7 6.1 0.00 0.00 0.00 32 1015.3
20260830232305 89 168 2.6 8.7 0.00 0.00 0.00 31 1015.3
20260830231803 90 130 2.6 5.2 0.00 0.00 0.00 31 1015.3
20260830231303 91 168 3.5 6.1 0.00 0.00 0.00 31 1015.3
20260830230803 93 136 2.6 5.2 0.00 0.00 0.00 28 1015.8
20260830230304 95 10 1.7 5.2 0.00 0.00 0.00 27 1015.8
20260830225305 95 145 1.7 1.7 0.00 0.00 0.00 27 1015.8
20260830224803 96 99 2.6 4.3 0.00 0.00 0.00 27 1015.6
20260830224303 96 145 1.7 5.2 0.00 0.00 0.00 27 1015.6
20260830223803 97 114 0.9 7.8 0.00 0.00 0.00 28 1015.6
20260830223303 96 145 1.7 2.6 0.00 0.00 0.00 29 1015.6
20260830222803 95 100 1.7 4.3 0.00 0.00 0.00 29 1015.6
20260830221304 95 78 0.9 6.1 0.00 0.00 0.00 30 1015.6
20260830220804 95 92 1.7 6.1 0.00 0.00 0.00 29 1015.6
20260830220304 94 100 1.7 5.2 0.00 0.00 0.00 29 1015.6
20260830215803 94 287 0.9 5.2 0.00 0.00 0.00 27 1015.6
20260830214303 96 258 1.7 6.1 0.00 0.00 0.00 26 1015.3
20260830213803 97 230 0.9 4.3 0.00 0.00 0.00 26 1015.3
20260830213304 97 280 0.9 1.7 0.00 0.00 0.00 25 1015.3
20260830211803 97 195 1.7 2.6 0.00 0.00 0.00 24 1015.6
20260830211303 97 280 1.7 5.2 0.00 0.00 0.00 24 1015.6
20260830210804 98 100 1.7 5.2 0.00 0.00 0.00 25 1015.6
20260830210303 97 190 0.9 4.3 0.00 0.00 0.00 24 1015.6
20260830205803 98 258 0.9 4.3 0.00 0.00 0.00 24 1015.6
20260830205305 98 145 1.7 4.3 0.00 0.00 0.00 25 1015.6
20260830204803 97 128 1.7 4.3 0.00 0.00 0.00 25 1016.0
20260830204303 97 168 1.7 4.3 0.00 0.00 0.00 25 1016.0
20260830203803 98 108 1.7 7.8 0.00 0.00 0.00 26 1016.0
20260830202803 97 87 0.9 4.3 0.00 0.00 0.00 27 1016.3
20260830202305 97 145 1.7 2.6 0.00 0.00 0.00 26 1016.3
20260830201803 97 198 1.7 11.3 0.00 0.00 0.00 26 1016.3
20260830201303 98 168 0.9 4.3 0.00 0.00 0.00 27 1016.3
20260830200804 99 189 1.7 5.2 0.00 0.00 0.00 26 1016.3
20260830200304 98 78 2.6 4.3 0.00 0.00 0.00 28 1016.3
20260830195803 98 32 1.7 6.1 0.00 0.00 0.00 28 1016.3
20260830195305 99 258 1.7 6.1 0.00 0.00 0.00 26 1015.8
20260830194804 98 106 1.7 2.6 0.00 0.00 0.00 27 1015.8
20260830194303 99 212 1.7 2.6 0.00 0.00 0.00 28 1015.8
20260830193803 99 122 1.7 6.1 0.00 0.00 0.00 29 1015.8
20260830193303 100 100 1.7 6.1 0.00 0.00 0.00 28 1015.8
20260830192803 99 228 0.9 6.1 0.00 0.00 0.00 30 1016.4
20260830192305 99 168 1.7 2.6 0.00 0.00 0.00 31 1016.4
20260830191803 99 162 1.7 6.1 0.00 0.00 0.00 30 1016.4
20260830191303 99 145 1.7 2.6 0.00 0.00 0.00 30 1016.4
20260830190803 98 47 1.7 5.2 0.00 0.00 0.00 31 1016.6
20260830190303 97 78 2.6 7.0 0.00 0.00 0.00 31 1016.6
20260830185804 97 168 1.7 6.1 0.00 0.00 0.00 31 1016.6
20260830185306 98 55 0.9 1.7 0.00 0.00 0.00 32 1016.6
20260830184803 97 243 0.9 5.2 0.00 0.00 0.00 34 1016.3
20260830184304 97 168 0.9 5.2 0.00 0.00 0.00 35 1016.3
20260830183303 96 78 0.9 2.6 0.00 0.00 0.00 35 1016.3
20260830182804 96 184 0.9 4.3 0.00 0.00 0.00 35 1017.1
20260830182306 96 212 1.7 4.3 0.00 0.00 0.00 39 1017.1
20260830181803 94 230 1.7 4.3 0.00 0.00 0.00 39 1017.1
20260830180803 92 252 4.3 10.4 0.00 0.00 0.00 38 1017.0
20260830180303 92 168 2.6 5.2 0.00 0.00 0.00 40 1017.0
20260830175803 92 105 2.6 8.7 0.00 0.00 0.00 36 1017.0